Terminal Aerodrome Forecast
Issued by NWS

Home | Current Version | Previous Version | Graphics & Text | Print | Product List | Glossary On
Versions: 1 2 3 4 5 6 7 8 9 10 11 12 13 14 15 16 17 18 19 20 21 22 23 24 25 26 27 28 29 30 31 32 33 34
000
FTUS43 KLOT 171400 AAB
TAFDPA
TAF AMD
KDPA 171400Z 1714/1812 05009KT 5SM BR OVC006
     FM171600 05009KT P6SM SCT006 OVC010
     FM171800 04010KT P6SM SCT015 BKN020
     FM172100 04009KT P6SM SCT030 SCT250
     FM180100 04008KT P6SM FEW030
     FM180400 04006KT 4SM HZ SCT025
     FM180800 VRB03KT 2SM BR BKN015=

USA.gov is the U.S. government's official web portal to all federal, state and local government web resources and services.